Wind_Speed
38 38 39 39 40 41 41 42 43 44 45 46 48 49 50 51 52 54 55 55 55 56 57 56 57 58 58 57 56 55 54 53 52 51 50 49 49 48 47 46 44 43 43
35 36 36 37 37 37 38 40 41 42 43 44 46 47 48 49 51 52 54 53 53 54 55 54 55 56 57 56 56 55 54 54 54 54 53 51 50 49 48 47 46 45 45
32 33 33 34 34 35 35 36 38 39 39 41 42 43 45 47 49 50 51 52 53 52 52 51 51 54 55 56 56 55 55 54 54 55 54 53 51 50 49 48 48 47 47
29 29 29 30 31 32 33 34 34 35 36 37 38 39 40 42 44 47 48 49 50 50 51 52 52 52 53 53 53 54 55 55 54 54 55 55 55 54 51 49 48 47 48
26 26 27 28 29 30 31 31 32 32 32 33 34 35 36 38 39 41 45 46 48 48 50 51 51 51 51 51 52 54 55 54 54 54 54 54 54 54 54 51 49 48 48
23 24 25 26 27 28 28 28 29 29 29 29 30 31 32 33 35 37 40 43 44 46 48 49 50 50 49 49 50 52 54 53 53 54 54 54 54 54 54 53 52 51 49
20 21 22 23 23 23 23 24 25 25 26 27 27 27 28 28 30 31 33 37 40 42 45 46 48 48 48 48 48 50 51 51 51 52 54 54 54 55 56 53 53 53 50
18 19 20 20 20 20 21 21 21 21 22 23 24 24 25 26 27 29 31 33 36 39 42 44 45 46 46 47 48 49 49 50 51 51 52 53 54 54 55 55 54 53 52
17 17 17 18 19 19 20 20 21 21 21 21 22 23 23 24 25 26 28 30 32 34 37 38 40 42 43 44 45 45 47 49 51 51 52 54 54 53 53 54 54 54 53
16 16 17 17 18 18 19 19 19 20 20 21 21 22 22 23 23 24 25 27 29 30 31 33 34 36 38 40 42 43 44 46 47 49 50 51 53 53 53 53 53 54 54
15 16 16 16 17 17 18 18 19 19 19 19 20 21 22 23 23 24 25 25 26 28 30 32 33 35 36 37 39 41 43 45 46 47 49 51 52 55 54 55 55 56 57
15 16 17 17 17 17 18 18 18 18 18 18 18 19 20 22 23 24 25 26 27 28 29 31 32 34 36 37 39 41 43 44 46 48 50 51 52 54 55 55 55 56 57
16 16 17 17 17 18 18 18 18 19 19 19 20 20 21 22 23 24 25 26 27 28 30 32 34 35 37 38 40 42 44 45 47 49 51 52 53 55 57 57 57 57 58
17 17 18 18 18 18 19 20 20 21 21 21 22 22 22 23 23 25 26 27 27 29 30 32 34 36 37 39 41 43 45 46 48 50 51 53 54 55 57 58 59 60 60
17 18 18 19 19 20 20 21 22 22 22 23 23 23 24 25 25 26 27 28 29 30 32 33 35 37 38 40 41 43 45 46 48 51 53 55 56 57 58 59 60 61 62
18 18 19 20 21 22 23 23 24 24 24 25 25 26 26 27 27 28 28 30 31 32 33 35 37 38 40 41 43 44 46 47 49 51 53 54 56 58 59 60 61 63 63
19 20 21 22 23 24 24 25 25 26 26 26 27 27 27 28 29 29 30 32 33 35 35 37 38 40 42 43 44 46 47 49 50 51 53 55 56 58 59 60 61 61 61
21 22 23 24 25 26 26 27 28 29 29 29 29 29 29 30 30 31 32 33 35 36 38 39 40 41 43 45 46 47 48 50 51 53 54 55 56 58 59 59 59 60 60
23 24 25 26 26 27 28 29 30 31 32 31 31 31 31 32 32 33 34 35 37 38 39 41 42 43 44 46 47 48 49 50 51 52 53 55 55 56 57 57 58 58 58
25 26 27 28 29 29 30 31 32 33 33 33 33 34 34 34 34 35 36 37 37 38 39 40 42 43 44 46 47 48 49 50 51 51 52 53 54 55 56 56 56 56 56
26 28 29 30 30 31 32 33 33 34 34 34 35 35 36 37 37 38 38 38 39 39 40 42 43 44 45 47 48 49 50 51 51 52 52 53 54 54 56 56 56 56 56
28 29 30 31 32 33 33 34 35 35 36 36 37 37 38 38 39 39 40 40 40 41 41 42 43 45 46 47 48 49 50 51 52 52 52 53 53 54 55 55 55 55 55
29 31 32 33 34 34 35 36 37 37 38 38 39 39 40 40 41 41 42 42 42 42 43 44 44 45 46 47 48 49 50 51 51 50 51 51 52 53 53 54 54 54 53
32 33 34 35 35 36 37 38 39 39 40 41 41 41 42 42 43 43 43 42 42 43 44 44 44 45 47 48 48 49 49 49 48 48 48 49 50 50 50 51 52 52 52
34 35 36 36 37 38 39 39 40 41 42 42 42 43 44 44 44 44 43 43 43 44 44 44 45 46 46 46 47 47 47 47 46 46 47 47 46 46 46 47 48 49 50
36 37 37 38 39 40 40 41 41 42 42 43 44 45 45 45 44 43 43 44 45 45 46 46 46 46 46 46 46 46 46 45 44 44 44 43 43 43 43 43 44 46 47
Wind_Direction
270 271 271 272 272 272 271 269 268 268 266 265 263 262 261 260 258 258 257 255 255 254 254 254 254 253 253 253 253 253 253 253 254 255 255 256 258 259 260 261 260 260 261
272 273 274 274 274 273 273 271 270 269 267 266 264 263 261 260 259 257 256 255 255 254 253 252 253 253 252 252 252 253 253 253 255 255 255 255 255 257 258 259 259 260 260
276 276 276 276 276 275 275 274 272 271 269 267 265 263 262 261 260 258 256 256 255 253 252 251 252 252 251 252 252 251 252 252 254 255 255 255 256 257 258 258 258 259 259
279 279 279 278 278 278 278 277 275 274 273 270 267 266 265 263 262 258 256 255 253 253 252 252 252 253 253 252 252 251 252 252 252 254 255 255 255 256 256 257 258 258 259
280 281 281 281 282 283 283 280 277 276 275 274 272 268 266 264 262 260 256 254 253 252 251 251 252 252 253 253 251 251 252 252 253 254 254 255 256 256 256 257 257 258 258
284 284 285 285 286 286 285 284 280 277 277 276 274 271 270 268 265 262 258 256 254 252 252 252 252 253 255 254 252 251 252 253 253 253 254 255 255 255 256 257 257 258 258
290 289 289 291 291 290 290 289 286 282 279 278 276 274 273 271 268 263 259 258 255 254 253 254 254 254 256 256 255 253 252 253 254 255 255 255 255 256 256 257 258 257 258
297 296 296 295 295 294 294 293 292 289 285 283 280 277 274 272 270 267 264 262 259 257 256 255 256 256 257 256 256 256 254 254 254 255 256 255 255 257 258 258 258 258 259
303 302 301 299 299 298 297 296 293 291 289 286 283 281 280 277 272 269 267 266 264 260 257 256 256 256 257 256 255 255 254 255 255 255 256 255 255 257 258 258 259 260 261
306 306 305 305 305 304 303 301 299 296 293 289 286 283 281 280 275 272 270 269 267 264 260 260 260 259 259 259 256 255 255 256 257 257 256 257 257 258 259 259 260 261 263
311 311 310 309 309 310 310 309 307 303 298 294 291 287 284 283 280 277 274 274 270 266 264 264 263 261 261 261 261 259 258 258 258 258 258 259 259 259 261 261 262 264 265
318 317 315 315 314 313 313 313 313 310 304 302 298 294 291 288 285 281 279 279 276 273 270 269 267 265 264 263 263 263 261 261 261 260 260 261 261 261 262 263 265 266 267
322 322 320 318 317 316 316 315 313 311 309 307 304 299 295 291 287 285 284 282 280 277 274 272 270 268 267 266 265 265 264 264 264 264 263 263 263 262 262 263 264 265 266
323 325 326 325 322 319 319 318 316 313 311 309 307 303 299 296 292 289 287 285 283 280 277 276 274 272 271 270 269 268 268 267 266 266 265 265 265 264 264 264 265 265 265
324 325 327 327 325 324 323 322 320 318 315 312 310 306 302 300 297 293 290 287 285 283 281 279 278 276 274 273 272 271 271 271 270 268 267 267 266 266 266 265 264 264 264
326 326 326 326 325 324 323 322 322 319 317 314 311 307 303 300 298 295 291 290 288 286 284 282 281 280 279 278 276 275 274 273 272 271 270 269 269 268 267 266 266 266 266
322 323 323 323 323 323 321 321 321 319 318 316 313 310 306 302 300 298 295 292 291 290 289 287 285 283 282 281 280 279 277 276 275 274 272 271 271 269 268 267 268 267 267
317 317 318 318 318 318 319 320 320 319 317 315 312 310 308 305 303 301 298 296 294 293 291 289 288 286 285 283 282 281 280 279 278 277 275 274 273 272 271 269 268 267 265
314 316 317 318 317 317 317 317 318 318 317 315 313 311 309 307 305 304 302 300 297 295 292 291 289 288 287 286 285 284 283 281 280 279 278 277 276 274 273 272 270 267 266
313 314 315 315 315 315 315 315 315 316 316 315 313 312 310 308 307 306 304 303 301 300 298 296 294 292 290 289 288 287 285 282 280 279 279 279 278 276 275 273 271 269 267
315 314 314 314 314 314 314 314 314 314 315 314 313 312 311 309 308 307 306 305 303 302 301 299 298 296 294 293 292 290 287 285 283 282 281 281 280 278 276 275 273 270 269
314 315 315 314 314 314 314 314 313 313 313 313 313 313 312 311 309 308 307 305 304 303 302 301 300 299 298 297 295 294 293 290 287 285 283 282 281 279 277 276 274 272 270
313 313 314 314 314 314 313 313 312 312 312 312 312 312 312 311 310 309 307 306 304 304 303 303 302 302 301 300 299 297 296 293 291 288 286 284 282 280 278 276 274 272 269
311 311 312 312 313 312 312 312 311 311 311 311 311 312 312 311 311 309 308 307 306 306 305 305 304 304 303 302 301 299 297 295 292 290 288 287 285 283 280 277 273 271 269
310 310 311 311 312 312 312 311 311 311 311 311 311 311 312 311 311 310 309 308 308 308 308 307 307 307 306 305 304 302 299 297 294 292 290 288 286 283 281 279 275 272 271
308 309 310 310 311 311 311 310 310 311 311 311 311 312 312 311 310 310 309 309 310 310 310 309 309 310 310 309 307 305 303 300 298 296 294 290 288 285 282 280 277 275 273
Height
5715 5714 5714 5713 5712 5711 5710 5710 5709 5708 5709 5709 5710 5711 5713 5714 5716 5718 5721 5723 5727 5730 5733 5737 5740 5743 5746 5749 5752 5754 5756 5759 5761 5763 5765 5767 5769 5771 5773 5775 5778 5779 5781
5707 5706 5705 5704 5703 5702 5700 5699 5698 5697 5697 5697 5698 5699 5700 5701 5703 5705 5708 5710 5713 5717 5720 5724 5727 5730 5732 5735 5738 5741 5744 5747 5748 5751 5752 5755 5758 5760 5762 5764 5766 5769 5770
5699 5698 5697 5696 5695 5693 5692 5690 5688 5687 5687 5686 5686 5687 5688 5689 5691 5692 5694 5697 5700 5703 5707 5711 5714 5716 5719 5723 5726 5729 5732 5734 5736 5738 5741 5743 5747 5749 5751 5753 5755 5757 5759
5692 5691 5690 5688 5687 5685 5683 5681 5680 5678 5677 5677 5676 5676 5677 5678 5678 5679 5681 5684 5687 5690 5694 5698 5701 5704 5707 5709 5713 5716 5718 5721 5724 5726 5728 5732 5734 5737 5740 5742 5743 5745 5747
5686 5685 5683 5681 5680 5678 5675 5673 5672 5670 5669 5668 5667 5667 5667 5667 5667 5668 5670 5672 5675 5679 5682 5685 5688 5691 5694 5697 5700 5703 5705 5708 5711 5714 5716 5719 5721 5723 5726 5729 5732 5733 5735
5681 5679 5677 5675 5673 5671 5669 5666 5665 5663 5662 5660 5659 5659 5658 5657 5657 5658 5660 5662 5664 5667 5670 5673 5676 5679 5682 5685 5687 5690 5693 5696 5698 5701 5703 5706 5708 5711 5713 5716 5719 5721 5723
5676 5674 5672 5670 5667 5665 5663 5660 5658 5656 5655 5654 5653 5652 5651 5650 5649 5650 5651 5653 5654 5657 5660 5662 5665 5668 5670 5673 5675 5678 5681 5683 5686 5688 5691 5693 5696 5698 5699 5702 5705 5707 5710
5672 5670 5667 5665 5663 5660 5658 5655 5653 5651 5649 5648 5646 5645 5644 5643 5643 5643 5644 5645 5646 5647 5649 5651 5654 5657 5659 5661 5663 5666 5669 5671 5673 5676 5678 5680 5682 5684 5686 5688 5691 5693 5696
5668 5666 5663 5661 5658 5656 5653 5651 5648 5646 5644 5642 5641 5640 5638 5637 5637 5636 5637 5637 5638 5638 5640 5641 5643 5645 5648 5650 5652 5654 5657 5659 5661 5663 5665 5667 5669 5671 5673 5674 5676 5679 5681
5664 5662 5660 5657 5654 5652 5649 5646 5643 5641 5639 5637 5636 5634 5633 5632 5631 5630 5630 5630 5630 5630 5631 5632 5634 5635 5637 5638 5640 5643 5645 5646 5648 5650 5652 5654 5656 5658 5659 5661 5662 5663 5666
5661 5659 5656 5653 5651 5648 5645 5642 5639 5637 5634 5632 5630 5629 5628 5626 5625 5624 5624 5623 5623 5623 5624 5624 5625 5626 5627 5628 5630 5631 5633 5634 5636 5637 5639 5640 5642 5644 5646 5647 5648 5649 5650
5658 5655 5652 5650 5647 5644 5641 5638 5635 5632 5630 5628 5626 5624 5622 5621 5619 5618 5617 5617 5616 5616 5616 5616 5616 5617 5618 5618 5619 5621 5622 5623 5624 5625 5626 5627 5628 5629 5631 5632 5633 5634 5634
5655 5652 5649 5646 5643 5640 5637 5635 5632 5629 5626 5624 5621 5619 5617 5615 5613 5612 5611 5610 5609 5608 5608 5607 5608 5608 5608 5608 5608 5609 5610 5610 5611 5612 5612 5613 5613 5614 5615 5616 5617 5617 5618
5652 5649 5646 5642 5639 5636 5634 5631 5628 5625 5622 5619 5616 5614 5611 5609 5607 5606 5604 5603 5601 5600 5599 5598 5598 5597 5597 5597 5597 5597 5597 5597 5597 5597 5597 5597 5597 5598 5598 5599 5599 5600 5600
5649 5646 5643 5639 5636 5633 5630 5627 5624 5620 5617 5614 5611 5608 5605 5603 5601 5599 5597 5595 5593 5592 5591 5589 5588 5587 5586 5585 5584 5584 5583 5583 5582 5581 5581 5581 5580 5580 5580 5580 5581 5581 5581
5646 5643 5639 5636 5633 5630 5626 5623 5619 5615 5612 5608 5605 5602 5599 5596 5594 5591 5589 5587 5585 5583 5581 5579 5578 5576 5574 5573 5571 5570 5569 5567 5566 5565 5564 5563 5562 5562 5561 5561 5561 5562 5561
5642 5639 5636 5633 5629 5626 5622 5618 5614 5610 5606 5603 5599 5596 5592 5589 5586 5583 5580 5578 5575 5573 5570 5568 5566 5564 5561 5559 5557 5555 5553 5551 5549 5547 5546 5544 5543 5542 5541 5541 5541 5541 5540
5639 5636 5632 5629 5625 5621 5617 5613 5609 5605 5601 5597 5593 5589 5585 5581 5578 5575 5571 5569 5566 5562 5560 5557 5554 5551 5548 5545 5543 5540 5538 5535 5532 5529 5527 5526 5524 5522 5520 5520 5520 5520 5520
5634 5631 5628 5624 5620 5616 5612 5608 5603 5599 5594 5590 5586 5582 5578 5574 5570 5566 5562 5558 5555 5551 5547 5544 5540 5537 5534 5530 5527 5524 5521 5518 5515 5512 5509 5507 5505 5502 5500 5499 5499 5500 5500
5629 5626 5622 5618 5614 5610 5606 5601 5597 5592 5587 5583 5578 5574 5570 5565 5561 5557 5552 5548 5543 5539 5535 5531 5527 5523 5519 5515 5511 5508 5505 5502 5499 5496 5492 5489 5486 5483 5480 5479 5479 5480 5480
5624 5620 5616 5612 5608 5604 5599 5594 5590 5585 5580 5575 5570 5566 5561 5556 5551 5547 5542 5537 5532 5528 5523 5519 5514 5509 5505 5501 5496 5491 5487 5484 5481 5478 5474 5471 5467 5464 5462 5460 5459 5459 5460
5618 5614 5610 5605 5601 5596 5592 5587 5582 5577 5572 5567 5562 5557 5552 5547 5541 5536 5531 5526 5521 5516 5511 5506 5501 5496 5491 5486 5480 5475 5470 5466 5462 5459 5456 5452 5449 5446 5443 5441 5440 5439 5439
5612 5607 5603 5598 5593 5589 5584 5579 5574 5569 5564 5558 5553 5548 5542 5537 5531 5525 5520 5514 5509 5504 5499 5494 5488 5483 5477 5471 5465 5459 5454 5449 5444 5441 5437 5434 5430 5427 5424 5422 5421 5420 5420
5604 5600 5595 5591 5586 5581 5576 5570 5565 5560 5554 5549 5544 5538 5532 5526 5520 5514 5508 5503 5497 5492 5486 5481 5475 5469 5463 5457 5450 5444 5439 5433 5428 5424 5420 5416 5412 5409 5406 5404 5403 5402 5402
5596 5592 5587 5582 5577 5572 5567 5561 5556 5550 5545 5539 5534 5528 5522 5515 5509 5503 5496 5491 5485 5479 5473 5468 5462 5456 5450 5442 5435 5429 5424 5418 5413 5408 5404 5400 5396 5393 5390 5388 5386 5385 5384
5588 5583 5578 5573 5568 5563 5557 5552 5546 5541 5535 5529 5523 5517 5511 5505 5498 5492 5486 5478 5473 5466 5460 5454 5448 5442 5435 5428 5422 5415 5409 5403 5398 5393 5389 5385 5381 5377 5374 5372 5370 5368 5367